Lid_Strength_Index
4 4 4 4 4 3 3 3 3 3 3 3 3 3 5 4 4 7 10 7 5 2 0 4 2 4 6 6 4 5 12 14 13 11 10 7 8 5 5 5 5 4 5 4 3
3 3 3 3 3 3 3 3 3 3 3 3 3 3 3 4 7 9 5 1 0 -1 3 7 8 4 6 6 6 8 11 11 9 9 10 8 8 7 6 6 6 5 4 3 3
3 3 3 3 3 3 3 3 3 3 3 3 3 3 3 5 11 11 1 1 1 -0 4 5 7 8 7 6 7 8 11 8 7 8 8 8 8 7 7 8 6 6 5 4 4
3 3 3 3 3 3 3 3 3 3 3 3 3 3 3 6 17 8 0 -0 -1 1 4 6 8 10 12 10 6 9 7 7 6 6 6 7 7 7 7 7 5 5 4 4 5
4 4 4 4 4 4 3 3 3 3 3 3 3 3 6 10 10 7 1 3 5 2 7 8 10 11 13 12 10 9 8 7 6 5 6 5 7 7 6 5 4 5 5 5 5
3 3 3 3 3 3 3 3 3 3 3 3 3 3 8 13 7 6 6 6 6 7 7 9 10 10 11 12 12 10 10 8 7 7 7 7 7 6 6 5 5 6 6 6 6
3 3 3 3 3 3 3 3 4 4 4 4 3 5 8 10 6 7 8 9 7 7 8 6 7 9 10 11 10 10 12 10 9 9 8 6 9 8 6 5 6 5 5 6 6
4 4 3 4 3 3 3 3 3 3 3 3 3 6 11 6 5 6 6 7 6 7 7 7 7 7 9 8 8 10 12 14 10 9 8 8 12 7 5 6 6 6 5 5 5
3 3 3 3 3 3 3 3 3 2 2 2 5 7 11 4 7 6 6 8 7 7 8 6 8 10 10 12 13 12 13 12 11 8 8 9 11 7 6 6 7 6 5 5 4
3 3 3 3 3 3 3 3 3 3 3 3 4 8 7 8 5 5 6 7 8 8 9 10 12 13 14 14 16 14 13 11 11 8 8 9 9 8 6 6 6 6 5 5 5
4 4 4 4 3 3 4 8 9 11 9 11 10 9 8 6 5 7 6 7 7 9 13 12 15 16 14 12 12 11 12 12 10 9 9 9 9 8 7 7 7 6 6 6 5
4 4 3 3 3 3 6 8 8 8 12 5 6 7 7 6 10 8 7 10 11 14 12 14 16 13 11 11 12 12 13 14 11 10 10 10 10 8 7 7 7 7 6 7 7
3 3 3 3 3 5 6 6 4 4 8 6 4 5 5 5 8 8 7 9 11 14 14 14 13 10 12 12 12 13 14 13 13 11 10 11 12 11 8 8 7 7 7 7 6
3 3 3 3 5 5 5 2 3 3 11 9 7 5 4 5 7 4 5 8 11 13 13 14 12 12 13 13 12 14 11 11 11 13 16 11 16 12 10 9 8 8 8 8 6
3 2 2 2 6 6 3 3 3 5 18 7 7 2 3 6 5 5 3 5 10 11 12 15 14 14 14 13 10 13 10 10 11 12 14 13 16 14 11 11 10 8 8 6 6
2 2 2 4 5 4 2 3 4 13 19 10 6 7 7 7 6 5 5 4 5 8 10 12 10 11 13 11 11 11 12 11 11 14 17 14 15 15 13 11 10 8 7 7 7
2 2 3 3 6 3 3 5 13 17 8 11 9 8 8 9 8 7 9 10 11 14 14 11 11 10 10 13 12 13 16 19 20 18 18 13 14 14 12 10 9 8 7 6 7
2 2 3 3 4 3 5 10 17 12 11 8 8 8 10 9 9 9 10 11 8 10 13 14 16 10 8 10 13 14 15 18 21 20 18 13 16 14 10 8 8 8 7 7 6
3 6 5 3 3 4 9 15 16 11 9 10 10 11 11 9 9 10 11 11 9 10 14 14 13 8 8 8 10 12 16 14 17 15 18 16 13 11 9 9 8 9 8 7 7
7 7 6 3 3 6 11 12 11 7 7 8 14 10 13 11 12 11 11 9 10 8 8 11 15 10 9 8 9 11 10 16 17 19 20 17 16 15 12 10 10 10 9 8 7
8 7 4 4 4 9 15 12 9 6 6 9 11 11 11 11 11 12 11 9 9 9 8 10 13 12 9 11 13 13 13 13 15 16 18 20 17 12 10 11 10 10 8 7 7
9 10 4 4 11 12 13 9 6 7 6 8 8 9 11 10 12 12 12 10 7 8 11 10 13 16 13 9 9 10 11 13 17 18 16 16 16 10 9 10 9 9 7 7 6
9 9 4 5 12 14 10 8 7 8 8 8 9 8 8 11 13 11 11 7 7 8 10 10 14 17 15 12 10 11 11 11 12 14 17 18 16 10 11 10 9 8 7 7 6
10 12 9 9 10 12 11 10 10 7 8 7 8 8 10 11 10 12 11 8 7 8 7 8 12 15 17 14 12 14 12 11 13 17 16 16 14 13 11 11 9 8 7 7 6
11 13 10 14 12 11 10 9 11 11 8 7 9 9 10 13 12 12 10 9 8 7 8 10 15 13 12 12 11 12 12 12 13 13 16 13 13 13 11 10 8 7 7 7 7
13 12 9 10 10 11 10 10 11 10 9 10 11 9 9 12 12 13 11 11 11 9 10 10 14 13 14 12 12 13 11 11 12 11 12 12 13 10 9 7 7 7 7 7 7
10 8 8 9 11 11 11 9 10 8 8 7 8 9 10 9 8 7 7 8 8 10 11 12 13 14 17 13 13 16 13 12 11 10 11 14 11 9 8 9 9 8 7 7 6